1497654001.06,6824,17.31,73468.5,-0.61,-1.33,-1.39,0,*55
1497654002.3,6825,17.31,73452.8,-0.61,-1.39,-1.47,0,*57
1497654003.52,6826,17.31,73448.8,-0.63,-1.71,-1.75,0,*5B
1497654004.73,6827,17.31,73452.3,-0.63,-1.51,-1.71,0,*5C
1497654005.97,6828,17.31,73452.3,-0.61,-1.39,-1.39,0,*53
1497654007.18,6829,17.31,73460.3,-0.61,-1.33,-1.35,0,*54
1497654008.36,6830,17.31,73464.8,-0.61,-1.25,-1.25,0,*5A
1497654009.54,6831,17.31,73474.3,-0.61,-1.21,-1.25,0,*5F
1497654010.72,6832,17.31,73480.8,-0.61,-1.25,-1.25,0,*58
1497654011.91,6833,17.31,73478.3,-0.61,-1.25,-1.21,0,*5D
1497654013.09,6834,17.31,73480.8,-0.61,-1.21,-1.33,0,*5D
1497654014.31,6835,17.31,73480.8,-0.59,-1.21,-1.29,0,*5C
1497654015.52,6836,17.31,73486.8,-0.59,-1.17,-1.29,0,*5A
1497654016.74,6837,17.31,73492.3,-0.59,-1.17,-1.21,0,*53
1497654017.96,6838,17.31,73488.0,-0.59,-1.17,-1.17,0,*59
1497654019.18,6839,17.31,73494.5,-0.59,-1.21,-1.29,0,*50
1497654020.36,6840,17.31,73494.0,-0.57,-1.29,-1.33,0,*53
1497654021.58,6841,17.31,73494.5,-0.59,-1.21,-1.29,0,*5F
1497654022.8,6842,17.31,73484.8,-0.59,-1.21,-1.29,0,*5C
1497654024.01,6843,17.31,73490.0,-0.59,-1.21,-1.33,0,*56
1497654025.19,6844,17.31,73488.0,-0.57,-1.29,-1.33,0,*57
1497654026.38,6845,17.31,73490.8,-0.57,-1.21,-1.29,0,*55
1497654027.6,6846,17.31,73488.0,-0.59,-1.17,-1.21,0,*55
1497654028.82,6847,17.31,73494.0,-0.59,-1.17,-1.21,0,*54
1497654030.01,6848,17.31,73494.8,-0.57,-1.17,-1.17,0,*50
1497654031.2,6849,17.31,73496.3,-0.57,-1.21,-1.21,0,*51
1497654032.39,6850,17.31,73492.0,-0.57,-1.29,-1.29,0,*59
1497654033.57,6851,17.31,73486.3,-0.57,-1.17,-1.17,0,*58
1497654034.77,6852,17.31,73480.8,-0.57,-1.17,-1.21,0,*5E
1497654035.96,6853,17.31,73482.3,-0.57,-1.17,-1.21,0,*5F
1497654037.14,6854,17.31,73478.3,-0.57,-1.21,-1.29,0,*55
1497654038.38,6855,17.31,73480.8,-0.55,-1.05,-1.17,0,*5D
1497654039.59,6856,17.31,73478.5,-0.53,-1.13,-1.17,0,*5F
1497654040.85,6857,17.31,73480.0,-0.55,-1.05,-1.13,0,*5B
1497654042.05,6858,17.31,73482.3,-0.55,-1.17,-1.25,0,*52
1497654043.26,6859,17.31,73482.3,-0.55,-1.25,-1.29,0,*5E
1497654044.47,6860,17.31,73496.8,-0.55,-1.29,-1.29,0,*58
1497654045.68,6861,17.31,73500.8,-0.55,-1.29,-1.29,0,*59
1497654046.88,6862,17.31,73504.8,-0.55,-1.25,-1.29,0,*56
1497654048.1,6863,17.31,73506.0,-0.55,-1.17,-1.17,0,*5B
1497654049.31,6864,17.31,73510.0,-0.55,-1.17,-1.17,0,*5C
1497654050.56,6865,17.31,73514.3,-0.55,-1.13,-1.13,0,*5D
1497654051.81,6866,17.31,73518.5,-0.55,-1.13,-1.13,0,*5E
1497654053.02,6867,17.31,73516.3,-0.53,-1.13,-1.17,0,*5D
1497654054.27,6868,17.31,73516.0,-0.55,-1.13,-1.13,0,*50
1497654055.53,6869,17.31,73516.5,-0.55,-1.13,-1.13,0,*51
1497654056.76,6870,17.31,73520.8,-0.55,-1.05,-1.17,0,*5A
1497654057.99,6871,17.31,73522.5,-0.55,-1.13,-1.25,0,*5D
1497654059.2,6872,17.31,73520.0,-0.55,-1.25,-1.29,0,*57
1497654060.38,6873,17.31,73516.8,-0.53,-1.29,-1.33,0,*57
1497654061.56,6874,17.31,73512.5,-0.53,-1.29,-1.33,0,*50
1497654062.75,6875,17.31,73514.0,-0.53,-1.25,-1.29,0,*56
1497654063.93,6876,17.31,73510.3,-0.53,-1.55,-1.63,0,*5C
1497654065.11,6877,17.31,73506.0,-0.53,-1.55,-1.63,0,*5D
1497654066.31,6878,17.31,73498.8,-0.55,-1.55,-1.55,0,*51
1497654067.52,6879,17.31,73498.0,-0.53,-1.43,-1.51,0,*55
1497654068.72,6880,17.31,73502.3,-0.55,-1.51,-1.55,0,*52
1497654069.98,6881,17.31,73504.0,-0.55,-1.39,-1.39,0,*57
1497654071.19,6882,17.31,73496.8,-0.55,-1.33,-1.33,0,*54
1497654072.4,6883,17.31,73500.8,-0.55,-1.29,-1.33,0,*5E
1497654073.61,6884,17.31,73504.8,-0.55,-1.29,-1.33,0,*59
1497654074.81,6885,17.31,73502.0,-0.55,-1.29,-1.29,0,*53
1497654076.0,6886,17.31,73502.3,-0.53,-1.29,-1.29,0,*56
1497654077.21,6887,17.31,73506.0,-0.55,-1.29,-1.29,0,*51
1497654078.42,6888,17.31,73498.8,-0.55,-1.29,-1.29,0,*5E
1497654079.62,6889,17.31,73498.8,-0.55,-1.25,-1.33,0,*58
1497654080.8,6890,17.31,73500.0,-0.53,-1.29,-1.33,0,*5A
1497654082.01,6891,17.31,73500.5,-0.55,-1.29,-1.33,0,*5D
1497654083.2,6892,17.31,73500.0,-0.53,-1.29,-1.29,0,*53
1497654084.41,6893,17.31,73502.0,-0.55,-1.29,-1.29,0,*54
1497654085.59,6894,17.31,73496.3,-0.53,-1.29,-1.33,0,*5E
1497654086.8,6895,17.31,73500.0,-0.55,-1.25,-1.29,0,*5E
1497654087.98,6896,17.31,73494.0,-0.53,-1.17,-1.29,0,*5A
1497654089.19,6897,17.31,73498.0,-0.53,-1.13,-1.25,0,*53
1497654090.42,6898,17.31,73502.3,-0.55,-1.13,-1.17,0,*5B
1497654091.63,6899,17.31,73500.3,-0.55,-1.17,-1.17,0,*5E
1497654092.86,6900,17.25,73496.0,-0.55,-1.13,-1.17,0,*5B
1497654094.05,6901,17.31,73500.5,-0.53,-1.17,-1.25,0,*59
1497654095.23,6902,17.31,73502.8,-0.53,-1.25,-1.25,0,*5B
1497654096.43,6903,17.31,73506.5,-0.55,-1.25,-1.29,0,*50
1497654097.67,6904,17.31,73506.8,-0.55,-1.33,-1.43,0,*5C
1497654098.87,6905,17.31,73504.0,-0.55,-1.51,-1.63,0,*5B
1497654100.05,6906,17.31,73504.3,-0.53,-1.63,-1.63,0,*5F
1497654101.26,6907,17.31,73512.8,-0.55,-1.55,-1.63,0,*5D
1497654102.46,6908,17.31,73512.8,-0.55,-1.55,-1.63,0,*52
1497654103.67,6909,17.31,73508.8,-0.55,-1.55,-1.67,0,*57
1497654104.88,6910,17.31,73502.3,-0.55,-1.63,-1.75,0,*59
1497654106.08,6911,17.31,73500.5,-0.55,-1.51,-1.55,0,*5B
1497654107.32,6912,17.31,73490.8,-0.55,-1.33,-1.39,0,*56
1497654108.52,6913,17.31,73494.8,-0.55,-1.33,-1.33,0,*5D
1497654109.76,6914,17.31,73496.0,-0.55,-1.39,-1.33,0,*50
1497654110.96,6915,17.31,73512.3,-0.55,-1.25,-1.33,0,*5C
1497654112.17,6916,17.31,73516.8,-0.55,-1.29,-1.29,0,*58
1497654113.38,6917,17.31,73516.3,-0.55,-1.25,-1.29,0,*55
1497654114.58,6918,17.31,73516.5,-0.55,-1.25,-1.25,0,*56
1497654115.79,6919,17.31,73512.5,-0.55,-1.17,-1.29,0,*5A
1497654117.0,6920,17.31,73512.8,-0.55,-1.17,-1.29,0,*50
1497654118.21,6921,17.31,73514.0,-0.55,-1.17,-1.25,0,*5D
1497654119.42,6922,17.31,73510.3,-0.55,-1.17,-1.25,0,*5E
1497654120.63,6923,17.31,73502.0,-0.55,-1.25,-1.29,0,*52
1497654121.84,6924,17.31,73500.8,-0.55,-1.17,-1.25,0,*58
1497654123.04,6925,17.31,73504.0,-0.55,-1.29,-1.33,0,*53
1497654124.25,6926,17.31,73510.8,-0.55,-1.29,-1.33,0,*50
1497654125.46,6927,17.31,73504.5,-0.55,-1.29,-1.33,0,*51
1497654126.66,6928,17.31,73506.8,-0.55,-1.25,-1.29,0,*59
1497654127.87,6929,17.31,73510.8,-0.55,-1.29,-1.29,0,*54
1497654129.08,6930,17.31,73514.5,-0.55,-1.25,-1.29,0,*50
1497654130.26,6931,17.31,73512.3,-0.53,-1.29,-1.29,0,*5B
1497654131.47,6932,17.31,73516.8,-0.55,-1.33,-1.33,0,*5E
1497654132.65,6933,17.31,73520.3,-0.53,-1.25,-1.33,0,*5E
1497654133.86,6934,17.31,73522.0,-0.55,-1.25,-1.29,0,*54
1497654135.06,6935,17.31,73520.0,-0.55,-1.25,-1.25,0,*59
1497654136.25,6936,17.31,73526.3,-0.53,-1.17,-1.25,0,*5D
1497654137.45,6937,17.31,73524.3,-0.53,-1.13,-1.25,0,*58
1497654138.63,6938,17.31,73524.5,-0.53,-1.25,-1.29,0,*5E
1497654139.81,6939,17.31,73528.0,-0.53,-1.25,-1.29,0,*5F
1497654141.0,6940,17.31,73534.5,-0.53,-1.17,-1.29,0,*50
1497654142.21,6941,17.31,73532.3,-0.55,-1.17,-1.29,0,*57
1497654143.42,6942,17.31,73536.5,-0.55,-1.29,-1.29,0,*59
1497654144.6,6943,17.31,73536.3,-0.53,-1.25,-1.25,0,*5E
1497654145.81,6944,17.31,73536.3,-0.55,-1.29,-1.29,0,*5F
1497654146.99,6945,17.31,73528.3,-0.53,-1.29,-1.33,0,*53
1497654148.18,6946,17.31,73526.8,-0.53,-1.29,-1.33,0,*50
1497654149.38,6947,17.31,73526.0,-0.55,-1.29,-1.33,0,*57
1497654150.56,6948,17.31,73526.8,-0.53,-1.25,-1.25,0,*55
1497654151.79,6949,17.31,73526.8,-0.55,-1.13,-1.25,0,*57
1497654152.99,6950,17.31,73524.8,-0.53,-1.13,-1.25,0,*59
1497654154.18,6951,17.31,73522.0,-0.53,-1.17,-1.29,0,*50
1497654155.41,6952,17.31,73520.3,-0.53,-1.13,-1.13,0,*5E
1497654156.64,6953,17.31,73518.3,-0.55,-1.13,-1.25,0,*5C
1497654157.85,6954,17.31,73518.3,-0.53,-1.13,-1.17,0,*5C
1497654159.06,6955,17.31,73516.8,-0.53,-1.13,-1.17,0,*5D
1497654160.27,6956,17.31,73520.3,-0.53,-1.13,-1.17,0,*5E
1497654161.47,6957,17.31,73520.0,-0.55,-1.29,-1.29,0,*5D
1497654162.66,6958,17.31,73520.3,-0.53,-1.29,-1.29,0,*54
1497654163.84,6959,17.31,73522.5,-0.53,-1.29,-1.33,0,*5E
1497654165.03,6960,17.31,73520.8,-0.53,-1.29,-1.33,0,*54
1497654166.24,6961,17.31,73522.3,-0.53,-1.33,-1.39,0,*54
1497654167.42,6962,17.31,73522.0,-0.53,-1.25,-1.33,0,*5A
1497654168.6,6963,17.31,73520.8,-0.53,-1.25,-1.29,0,*50
1497654169.79,6964,17.31,73516.8,-0.53,-1.29,-1.29,0,*5B
1497654170.97,6965,17.31,73518.5,-0.53,-1.17,-1.25,0,*5B
1497654172.15,6966,17.31,73516.5,-0.53,-1.25,-1.29,0,*55
1497654173.33,6967,17.31,73510.8,-0.53,-1.25,-1.29,0,*54
1497654174.52,6968,17.31,73510.8,-0.53,-1.29,-1.29,0,*57
1497654175.73,6969,17.31,73506.8,-0.53,-1.29,-1.39,0,*57
1497654176.95,6970,17.31,73504.3,-0.53,-1.33,-1.39,0,*54
1497654178.16,6971,17.31,73502.8,-0.53,-1.33,-1.43,0,*58
1497654179.42,6972,17.31,73500.5,-0.55,-1.39,-1.43,0,*57
1497654180.6,6973,17.31,73496.8,-0.53,-1.33,-1.33,0,*5D
1497654181.81,6974,17.31,73494.3,-0.55,-1.33,-1.33,0,*5C
1497654183.02,6975,17.31,73492.0,-0.55,-1.29,-1.33,0,*56
1497654184.23,6976,17.31,73490.0,-0.53,-1.29,-1.39,0,*59
1497654185.41,6977,17.31,73490.3,-0.53,-1.29,-1.33,0,*52
1497654186.62,6978,17.31,73486.5,-0.55,-1.29,-1.29,0,*50
1497654187.83,6979,17.31,73488.8,-0.55,-1.25,-1.29,0,*5D
1497654189.04,6980,17.31,73498.5,-0.55,-1.29,-1.29,0,*57
1497654190.25,6981,17.31,73496.8,-0.55,-1.29,-1.29,0,*56
1497654191.45,6982,17.31,73498.8,-0.55,-1.25,-1.25,0,*55
1497654192.66,6983,17.31,73496.0,-0.55,-1.17,-1.25,0,*55
1497654193.84,6984,17.31,73496.0,-0.53,-1.29,-1.29,0,*55
1497654195.05,6985,17.31,73502.8,-0.53,-1.13,-1.25,0,*51
1497654196.23,6986,17.31,73498.3,-0.53,-1.17,-1.25,0,*56
1497654197.46,6987,17.31,73500.0,-0.55,-1.13,-1.25,0,*55
1497654198.65,6988,17.31,73488.3,-0.53,-1.17,-1.25,0,*58
1497654199.85,6989,17.31,73486.5,-0.55,-1.25,-1.25,0,*5E
1497654201.04,6990,17.31,73482.3,-0.53,-1.17,-1.29,0,*5D
1497654202.25,6991,17.31,73472.8,-0.55,-1.29,-1.29,0,*57
1497654203.46,6992,17.31,73468.0,-0.55,-1.29,-1.29,0,*54
1497654204.64,6993,17.31,73466.3,-0.53,-1.29,-1.33,0,*58
1497654205.85,6994,17.31,73466.8,-0.55,-1.29,-1.33,0,*59
1497654207.05,6995,17.31,73460.8,-0.55,-1.29,-1.33,0,*58
1497654208.24,6996,17.31,73456.0,-0.53,-1.29,-1.33,0,*5D
1497654209.48,6997,17.31,73460.5,-0.51,-1.13,-1.21,0,*54
1497654210.66,6998,17.31,73464.3,-0.53,-1.17,-1.25,0,*59
1497654211.87,6999,17.31,73460.0,-0.53,-1.13,-1.17,0,*5D
1497654213.08,7000,17.31,73460.8,-0.55,-1.17,-1.17,0,*57
1497654214.29,7001,17.31,73468.3,-0.53,-1.13,-1.25,0,*55
1497654215.54,7002,17.25,73470.3,-0.55,-1.13,-1.13,0,*55
1497654216.77,7003,17.31,73476.3,-0.55,-1.13,-1.17,0,*50
1497654218.03,7004,17.31,73476.5,-0.51,-1.09,-1.09,0,*57
1497654219.24,7005,17.31,73478.3,-0.53,-1.13,-1.17,0,*50
1497654220.44,7006,17.31,73488.5,-0.53,-1.13,-1.17,0,*53
1497654221.67,7007,17.31,73490.0,-0.53,-1.13,-1.13,0,*56
1497654222.93,7008,17.31,73492.0,-0.51,-1.09,-1.09,0,*5B
1497654224.16,7009,17.31,73496.8,-0.53,-1.13,-1.13,0,*58
1497654225.39,7010,17.31,73500.3,-0.53,-1.05,-1.05,0,*50
1497654226.65,7011,17.31,73504.8,-0.51,-1.01,-0.97,0,*6D
1497654227.91,7012,17.31,73506.3,-0.51,-1.01,-1.01,0,*50
1497654229.17,7013,17.31,73510.8,-0.51,-1.01,-1.01,0,*51
1497654230.4,7014,17.31,73510.5,-0.49,-1.01,-1.13,0,*5C
1497654231.65,7015,17.31,73518.5,-0.51,-1.09,-1.13,0,*5C
1497654232.89,7016,17.31,73518.0,-0.51,-1.13,-1.21,0,*55
1497654234.15,7017,17.31,73516.3,-0.51,-1.13,-1.13,0,*55
1497654235.4,7018,17.31,73516.8,-0.51,-1.09,-1.13,0,*51
1497654236.66,7019,17.31,73514.5,-0.51,-1.09,-1.13,0,*50
1497654237.91,7020,17.31,73518.8,-0.51,-1.09,-1.09,0,*51
1497654239.17,7021,17.31,73516.0,-0.51,-1.01,-1.09,0,*58
1497654240.42,7022,17.31,73524.3,-0.51,-1.09,-1.13,0,*58
1497654241.68,7023,17.31,73524.3,-0.51,-1.01,-1.13,0,*51
1497654242.94,7024,17.31,73524.0,-0.51,-1.01,-1.09,0,*5D
1497654244.2,7025,17.31,73530.0,-0.51,-1.01,-1.09,0,*5C
1497654245.44,7026,17.31,73524.0,-0.49,-1.01,-1.01,0,*5E
1497654246.69,7027,17.31,73526.8,-0.51,-1.01,-1.01,0,*56
1497654247.92,7028,17.31,73526.8,-0.49,-1.09,-1.13,0,*5B
1497654249.16,7029,17.31,73528.8,-0.49,-1.13,-1.13,0,*51
1497654250.34,7030,17.31,73530.8,-0.49,-1.25,-1.25,0,*59
1497654251.54,7031,17.31,73528.8,-0.49,-1.21,-1.21,0,*58
1497654252.72,7032,17.31,73528.3,-0.49,-1.25,-1.25,0,*5B
1497654253.98,7033,17.31,73528.8,-0.51,-1.35,-1.35,0,*53
1497654255.24,7034,17.31,73526.8,-0.51,-1.35,-1.39,0,*58
1497654256.43,7035,17.31,73528.0,-0.49,-1.29,-1.29,0,*5C
1497654257.65,7036,17.31,73528.3,-0.51,-1.21,-1.29,0,*5E
1497654258.89,7037,17.31,73532.0,-0.51,-1.39,-1.51,0,*59
1497654260.09,7038,17.31,73536.8,-0.51,-1.59,-1.63,0,*51
1497654261.3,7039,17.31,73532.3,-0.53,-1.43,-1.51,0,*58
1497654262.51,7040,17.31,73528.0,-0.53,-1.43,-1.51,0,*56
1497654263.7,7041,17.31,73520.8,-0.53,-1.63,-1.67,0,*50
1497654264.9,7042,17.31,73508.8,-0.53,-1.75,-1.87,0,*5A
1497654266.09,7043,17.31,73502.0,-0.53,-1.67,-1.79,0,*59
1497654267.27,7044,17.31,73500.8,-0.53,-1.67,-1.67,0,*51
1497654268.48,7045,17.31,73500.5,-0.55,-1.75,-1.79,0,*5A
1497654269.68,7046,17.31,73500.0,-0.53,-1.79,-1.91,0,*55
1497654270.95,7047,17.31,73498.0,-0.55,-1.87,-1.99,0,*5B
1497654272.18,7048,17.31,73500.3,-0.53,-1.91,-1.99,0,*55
1497654273.44,7049,17.31,73498.3,-0.55,-1.91,-1.99,0,*52
1497654274.67,7050,17.31,73502.5,-0.57,-1.95,-2.03,0,*5C
1497654275.91,7051,17.31,73502.3,-0.57,-2.03,-2.03,0,*51
1497654277.14,7052,17.31,73498.0,-0.57,-1.95,-2.03,0,*5E
1497654278.35,7053,17.31,73494.8,-0.57,-2.03,-2.15,0,*54
1497654279.61,7054,17.31,73498.8,-0.59,-1.95,-2.03,0,*56
1497654280.88,7055,17.31,73490.8,-0.59,-1.91,-1.91,0,*5B
1497654282.11,7056,17.31,73484.5,-0.61,-1.95,-2.07,0,*5B
1497654283.32,7057,17.31,73478.5,-0.61,-1.75,-1.83,0,*5B
1497654284.51,7058,17.31,73474.0,-0.61,-1.71,-1.75,0,*59
1497654285.69,7059,17.31,73472.8,-0.61,-1.51,-1.63,0,*5D
1497654286.86,7060,17.31,73472.8,-0.61,-1.59,-1.59,0,*56
1497654288.03,7061,17.31,73474.3,-0.61,-1.51,-1.59,0,*5F
1497654289.25,7062,17.31,73474.8,-0.61,-1.39,-1.59,0,*52
1497654290.48,7063,17.31,73472.0,-0.61,-1.47,-1.47,0,*55
1497654291.72,7064,17.31,73468.5,-0.63,-1.47,-1.51,0,*57
1497654292.96,7065,17.31,73476.8,-0.63,-1.47,-1.51,0,*56
1497654294.17,7066,17.31,73476.8,-0.61,-1.47,-1.51,0,*57
1497654295.4,7067,17.31,73480.5,-0.61,-1.35,-1.39,0,*5D
1497654296.64,7068,17.31,73486.8,-0.63,-1.33,-1.35,0,*5A
1497654297.82,7069,17.31,73486.8,-0.61,-1.25,-1.25,0,*5F
1497654299.03,7070,17.31,73484.8,-0.61,-1.25,-1.35,0,*56
1497654300.26,7071,17.31,73484.0,-0.61,-1.35,-1.35,0,*56
1497654301.45,7072,17.31,73474.8,-0.61,-1.33,-1.33,0,*55
1497654302.66,7073,17.31,73464.8,-0.61,-1.25,-1.35,0,*55
1497654303.87,7074,17.31,73464.5,-0.61,-1.33,-1.35,0,*55
1497654305.11,7075,17.31,73470.0,-0.59,-1.33,-1.35,0,*5F
1497654306.36,7076,17.31,73470.5,-0.59,-1.29,-1.35,0,*57
1497654307.6,7077,17.31,73472.5,-0.59,-1.33,-1.35,0,*5D
1497654308.84,7078,17.31,73474.0,-0.59,-1.33,-1.35,0,*52
1497654310.06,7079,17.31,73476.0,-0.59,-1.29,-1.29,0,*55
1497654311.27,7080,17.31,73478.3,-0.59,-1.33,-1.33,0,*53
1497654312.49,7081,17.31,73478.0,-0.59,-1.29,-1.33,0,*59
1497654313.7,7082,17.31,73470.8,-0.59,-1.29,-1.29,0,*51
1497654314.92,7083,17.31,73472.5,-0.59,-1.21,-1.29,0,*58
1497654316.13,7084,17.31,73474.8,-0.59,-1.29,-1.33,0,*5C
1497654317.31,7085,17.31,73474.3,-0.57,-1.33,-1.33,0,*58
1497654318.56,7086,17.31,73470.8,-0.59,-1.29,-1.35,0,*58
1497654319.74,7087,17.31,73476.8,-0.57,-1.33,-1.29,0,*51
1497654320.95,7088,17.31,73484.5,-0.59,-1.29,-1.33,0,*50
1497654322.14,7089,17.31,73486.0,-0.57,-1.33,-1.33,0,*54
1497654323.36,7090,17.31,73482.8,-0.59,-1.21,-1.21,0,*52
1497654324.55,7091,17.31,73480.3,-0.57,-1.17,-1.17,0,*5D
1497654325.74,7092,17.31,73486.8,-0.57,-1.17,-1.21,0,*5B
1497654326.93,7093,17.31,73486.5,-0.57,-1.21,-1.29,0,*57
1497654328.11,7094,17.31,73486.0,-0.57,-1.33,-1.33,0,*58
1497654329.35,7095,17.31,73482.8,-0.57,-1.47,-1.47,0,*59
1497654330.58,7096,17.31,73484.8,-0.59,-1.47,-1.55,0,*57
1497654331.85,7097,17.31,73494.0,-0.59,-1.35,-1.35,0,*55
1497654333.11,7098,17.31,73498.5,-0.59,-1.35,-1.43,0,*5B
1497654334.35,7099,17.31,73492.0,-0.59,-1.79,-1.83,0,*5E
1497654335.61,7100,17.31,73492.5,-0.59,-1.43,-1.47,0,*5E
1497654336.86,7101,17.31,73486.5,-0.59,-1.33,-1.35,0,*5D
1497654338.09,7102,17.31,73482.5,-0.57,-1.35,-1.35,0,*56
1497654339.36,7103,17.31,73484.8,-0.59,-1.43,-1.47,0,*5D
1497654340.57,7104,17.31,73484.8,-0.59,-1.55,-1.67,0,*5F
1497654341.75,7105,17.31,73482.5,-0.57,-1.59,-1.71,0,*5B
1497654342.99,7106,17.31,73484.0,-0.59,-1.47,-1.59,0,*53
1497654344.2,7107,17.31,73484.0,-0.59,-1.55,-1.59,0,*51
1497654345.44,7108,17.31,73486.3,-0.59,-1.47,-1.55,0,*51
1497654346.67,7109,17.31,73484.3,-0.59,-1.47,-1.59,0,*5C
1497654347.87,7110,17.31,73488.3,-0.63,-1.59,-1.59,0,*52
1497654349.06,7111,17.31,73490.5,-0.61,-1.63,-1.71,0,*52
1497654350.27,7112,17.31,73488.8,-0.61,-1.47,-1.59,0,*5D
1497654351.45,7113,17.31,73472.8,-0.61,-1.63,-1.63,0,*53
1497654352.63,7114,17.31,73486.0,-0.61,-1.59,-1.71,0,*5E
1497654353.81,7115,17.31,73486.0,-0.61,-1.51,-1.63,0,*54
1497654355.05,7116,17.31,73490.3,-0.59,-1.47,-1.55,0,*5E
1497654356.23,7117,17.31,73484.5,-0.61,-1.63,-1.71,0,*54
1497654357.5,7118,17.31,73486.5,-0.63,-1.83,-1.87,0,*5E
1497654358.7,7119,17.31,73484.8,-0.61,-1.75,-1.95,0,*57
1497654359.96,7120,17.31,73482.5,-0.63,-1.95,-1.99,0,*5D
1497654361.22,7121,17.31,73476.3,-0.63,-1.95,-1.99,0,*5C
1497654362.49,7122,17.31,73466.0,-0.63,-2.07,-2.07,0,*53
1497654363.75,7123,17.31,73454.0,-0.63,-1.95,-1.99,0,*5E
1497654364.98,7124,17.31,73444.3,-0.63,-1.75,-1.87,0,*58
1497654366.2,7125,17.31,73442.5,-0.63,-1.71,-1.75,0,*50
1497654367.41,7126,17.31,73436.8,-0.63,-1.63,-1.63,0,*57
1497654368.61,7127,17.31,73444.5,-0.67,-1.51,-1.55,0,*56
1497654369.85,7128,17.31,73442.5,-0.63,-1.33,-1.39,0,*53
1497654371.06,7129,17.31,73434.3,-0.63,-1.25,-1.33,0,*5F
1497654372.29,7130,17.31,73438.5,-0.63,-1.25,-1.35,0,*51
1497654373.53,7131,17.31,73444.0,-0.63,-1.13,-1.21,0,*50
1497654374.74,7132,17.31,73440.8,-0.63,-1.21,-1.25,0,*56
1497654375.95,7133,17.31,73426.8,-0.63,-1.25,-1.25,0,*53
1497654377.13,7134,17.31,73428.3,-0.61,-1.21,-1.25,0,*52
1497654378.34,7135,17.31,73432.0,-0.63,-1.21,-1.25,0,*51
1497654379.52,7136,17.31,73434.0,-0.61,-1.21,-1.33,0,*57
1497654380.76,7137,17.31,73412.3,-0.61,-1.39,-1.47,0,*5C
1497654382.0,7138,17.31,73412.3,-0.61,-1.35,-1.35,0,*5A
1497654383.23,7139,17.31,73432.5,-0.61,-1.35,-1.35,0,*5B
1497654384.47,7140,17.31,73426.8,-0.61,-1.35,-1.47,0,*50
1497654385.7,7141,17.31,73440.0,-0.61,-1.35,-1.39,0,*58
1497654386.93,7142,17.31,73444.8,-0.61,-1.35,-1.47,0,*52
1497654388.15,7143,17.31,73444.8,-0.61,-1.33,-1.35,0,*50
1497654389.33,7144,17.31,73460.0,-0.61,-1.25,-1.33,0,*56
1497654390.53,7145,17.31,73470.3,-0.61,-1.35,-1.33,0,*56
1497654391.77,7146,17.31,73472.3,-0.61,-1.35,-1.35,0,*53
1497654392.95,7147,17.31,73472.5,-0.61,-1.25,-1.33,0,*55
1497654394.13,7148,17.31,73478.8,-0.61,-1.25,-1.33,0,*5A
1497654395.34,7149,17.31,73484.8,-0.59,-1.29,-1.29,0,*57
1497654396.56,7150,17.31,73484.8,-0.59,-1.21,-1.21,0,*5F
1497654397.75,7151,17.31,73482.8,-0.57,-1.17,-1.17,0,*50
1497654398.97,7152,17.31,73484.3,-0.59,-1.17,-1.21,0,*58
1497654400.19,7153,17.31,73494.8,-0.59,-1.29,-1.21,0,*54
1497654401.37,7154,17.31,73492.3,-0.57,-1.33,-1.33,0,*55
1497654402.59,7155,17.31,73494.8,-0.59,-1.17,-1.21,0,*5F
1497654403.81,7156,17.31,73492.3,-0.59,-1.21,-1.33,0,*5A
1497654404.99,7157,17.31,73494.5,-0.57,-1.21,-1.29,0,*5E
1497654406.21,7158,17.31,73496.8,-0.59,-1.21,-1.33,0,*54
1497654407.39,7159,17.31,73496.5,-0.57,-1.21,-1.29,0,*50
1497654408.58,7160,17.31,73496.3,-0.57,-1.21,-1.29,0,*5A
1497654409.79,7161,17.31,73486.0,-0.57,-1.33,-1.35,0,*55
1497654411.01,7162,17.31,73478.8,-0.59,-1.29,-1.29,0,*5E
1497654412.19,7163,17.31,73476.0,-0.57,-1.33,-1.33,0,*51
1497654413.46,7164,17.31,73472.8,-0.59,-1.35,-1.47,0,*5D
1497654414.72,7165,17.31,73474.3,-0.59,-1.35,-1.35,0,*59
1497654415.96,7166,17.31,73472.8,-0.59,-1.33,-1.35,0,*5C
1497654417.18,7167,17.31,73474.8,-0.57,-1.33,-1.35,0,*53
1497654418.42,7168,17.31,73474.3,-0.59,-1.33,-1.35,0,*52
1497654419.66,7169,17.31,73476.5,-0.59,-1.29,-1.35,0,*58
1497654420.85,7170,17.31,73474.8,-0.57,-1.29,-1.33,0,*58
1497654422.06,7171,17.31,73472.0,-0.57,-1.33,-1.35,0,*54
1497654423.27,7172,17.31,73470.8,-0.57,-1.33,-1.35,0,*57
1497654424.48,7173,17.31,73472.0,-0.57,-1.33,-1.35,0,*56
1497654425.7,7174,17.31,73470.3,-0.59,-1.29,-1.33,0,*52
1497654426.88,7175,17.31,73462.5,-0.57,-1.29,-1.33,0,*5D
1497654428.06,7176,17.31,73456.8,-0.57,-1.29,-1.33,0,*5E
1497654429.25,7177,17.31,73462.3,-0.57,-1.33,-1.33,0,*54
1497654430.46,7178,17.31,73464.3,-0.59,-1.33,-1.33,0,*55
1497654431.65,7179,17.31,73466.8,-0.57,-1.33,-1.33,0,*5A
1497654432.88,7180,17.31,73464.3,-0.57,-1.35,-1.47,0,*59
1497654434.11,7181,17.31,73462.3,-0.57,-1.35,-1.35,0,*5D
1497654435.3,7182,17.31,73466.5,-0.57,-1.29,-1.33,0,*55
1497654436.48,7183,17.31,73470.0,-0.57,-1.29,-1.29,0,*5F
1497654437.67,7184,17.31,73472.5,-0.57,-1.21,-1.29,0,*50
1497654438.89,7185,17.31,73472.8,-0.59,-1.21,-1.29,0,*5F
1497654440.07,7186,17.31,73470.5,-0.57,-1.17,-1.29,0,*57
1497654441.26,7187,17.31,73470.0,-0.57,-1.21,-1.21,0,*5B
1497654442.45,7188,17.31,73468.3,-0.57,-1.21,-1.21,0,*54
1497654443.64,7189,17.31,73472.8,-0.57,-1.17,-1.17,0,*55
1497654444.83,7190,17.31,73472.0,-0.57,-1.17,-1.29,0,*50
1497654446.02,7191,17.31,73472.0,-0.57,-1.17,-1.21,0,*59
1497654447.24,7192,17.31,73472.8,-0.59,-1.17,-1.17,0,*51
1497654448.43,7193,17.31,73474.8,-0.57,-1.17,-1.21,0,*5B
1497654449.66,7194,17.31,73472.8,-0.55,-1.17,-1.13,0,*5F
1497654450.9,7195,17.31,73474.8,-0.55,-1.05,-1.17,0,*59
1497654452.11,7196,17.31,73474.8,-0.55,-1.17,-1.25,0,*58
1497654453.35,7197,17.31,73472.3,-0.55,-1.29,-1.39,0,*59
1497654454.55,7198,17.31,73476.8,-0.55,-1.29,-1.33,0,*5C
1497654455.76,7199,17.31,73480.8,-0.55,-1.25,-1.25,0,*56
1497654456.97,7200,17.31,73480.5,-0.55,-1.17,-1.17,0,*55
1497654458.17,7201,17.31,73480.3,-0.55,-1.25,-1.29,0,*58
1497654459.44,7202,17.31,73484.0,-0.55,-1.39,-1.43,0,*5A
1497654460.67,7203,17.31,73480.3,-0.55,-1.33,-1.43,0,*51
1497654461.94,7204,17.31,73478.8,-0.55,-1.39,-1.43,0,*5C
1497654463.17,7205,17.31,73480.0,-0.55,-1.33,-1.43,0,*57
1497654464.38,7206,17.31,73480.5,-0.55,-1.33,-1.33,0,*53
1497654465.59,7207,17.31,73482.5,-0.55,-1.33,-1.33,0,*52
1497654466.82,7208,17.31,73478.8,-0.57,-1.35,-1.35,0,*5F
1497654468.04,7209,17.31,73484.3,-0.57,-1.33,-1.35,0,*58
1497654469.25,7210,17.31,73484.8,-0.57,-1.33,-1.43,0,*51
1497654470.48,7211,17.31,73488.5,-0.57,-1.35,-1.35,0,*57
1497654471.72,7212,17.31,73486.5,-0.57,-1.35,-1.35,0,*54
1497654472.96,7213,17.31,73490.8,-0.59,-1.33,-1.35,0,*5D
1497654474.15,7214,17.31,73488.8,-0.57,-1.21,-1.29,0,*5A
1497654475.33,7215,17.31,73494.8,-0.57,-1.29,-1.33,0,*58
1497654476.54,7216,17.31,73496.0,-0.57,-1.33,-1.35,0,*56
1497654477.76,7217,17.31,73492.3,-0.57,-1.33,-1.35,0,*57
1497654478.97,7218,17.31,73502.5,-0.57,-1.33,-1.35,0,*58
1497654480.2,7219,17.31,73498.8,-0.57,-1.35,-1.35,0,*5F
1497654481.44,7220,17.31,73502.0,-0.57,-1.35,-1.35,0,*55
1497654482.67,7221,17.31,73504.8,-0.57,-1.35,-1.35,0,*54
1497654483.9,7222,17.31,73504.3,-0.57,-1.35,-1.35,0,*57
1497654485.12,7223,17.31,73502.0,-0.59,-1.29,-1.33,0,*53
1497654486.3,7224,17.31,73510.8,-0.57,-1.33,-1.29,0,*5A
1497654487.49,7225,17.31,73508.8,-0.57,-1.29,-1.33,0,*5B
1497654488.67,7226,17.31,73508.5,-0.57,-1.29,-1.33,0,*58
1497654489.86,7227,17.31,73508.8,-0.57,-1.21,-1.29,0,*5A
1497654491.04,7228,17.31,73506.3,-0.57,-1.21,-1.33,0,*5E
1497654492.23,7229,17.31,73508.8,-0.57,-1.21,-1.21,0,*5C
1497654493.42,7230,17.31,73504.3,-0.57,-1.17,-1.29,0,*59
1497654494.61,7231,17.31,73504.3,-0.57,-1.21,-1.29,0,*5D
1497654495.79,7232,17.31,73504.3,-0.57,-1.29,-1.33,0,*5D
1497654497.0,7233,17.31,73502.5,-0.55,-1.29,-1.33,0,*5E
1497654498.23,7234,17.31,73504.0,-0.57,-1.35,-1.35,0,*50
1497654499.44,7235,17.31,73510.5,-0.57,-1.35,-1.55,0,*57
1497654500.67,7236,17.31,73508.8,-0.57,-1.43,-1.47,0,*56
1497654501.9,7237,17.31,73506.8,-0.57,-1.35,-1.43,0,*52
1497654503.15,7238,17.31,73502.8,-0.59,-1.33,-1.35,0,*54
1497654504.39,7239,17.31,73506.0,-0.59,-1.33,-1.35,0,*55
1497654505.58,7240,17.31,73502.8,-0.57,-1.29,-1.29,0,*53
1497654506.76,7241,17.31,73506.3,-0.57,-1.29,-1.29,0,*52
1497654507.95,7242,17.31,73510.0,-0.57,-1.21,-1.33,0,*52
1497654509.16,7243,17.31,73504.8,-0.57,-1.33,-1.43,0,*57
1497654510.37,7244,17.31,73492.5,-0.57,-1.29,-1.35,0,*5A